This is the latest recevied weather packets stored in our database for station/object AD8PA-13. If no packets are shown the sender has not sent any weather packets the latest 10 day(s).
| Time | Temp. | Humidity | Pressure | Rain* | Wind** | Luminosity | Snow |
|---|---|---|---|---|---|---|---|
| 1777519914 | 5.56° C | 91% | 1013.8 hPa | 1.27 mm | - | - | - |
| 1777519009 | 6.11° C | 92% | 1013.9 hPa | 1.27 mm | - | - | - |
| 1777518109 | 6.11° C | 91% | 1013.9 hPa | 1.27 mm | - | - | - |
| 1777517206 | 6.67° C | 94% | 1013.9 hPa | 1.78 mm | - | - | - |
| 1777516303 | 6.67° C | 94% | 1013.9 hPa | 1.78 mm | - | - | - |
| 1777515398 | 6.67° C | 94% | 1013.7 hPa | 0 mm | - | - | - |
| 1777514494 | 6.67° C | 93% | 1013.6 hPa | 0 mm | - | - | - |
| 1777513591 | 6.67° C | 91% | 1013.3 hPa | 1.27 mm | - | - | - |
| 1777512692 | 7.22° C | 90% | 1013.1 hPa | 1.78 mm | - | - | - |
| 1777511790 | 7.78° C | 92% | 1012.8 hPa | 1.27 mm | - | - | - |
| 1777510885 | 7.78° C | 92% | 1012.9 hPa | 1.78 mm | - | - | - |
| 1777509980 | 7.78° C | 92% | 1012.3 hPa | 0 mm | - | - | - |
| 1777509075 | 8.33° C | 90% | 1012.2 hPa | 0 mm | - | - | - |
| 1777508172 | 8.33° C | 88% | 1012 hPa | 0 mm | - | - | - |
| 1777507269 | 8.89° C | 86% | 1011.7 hPa | 0 mm | - | - | - |
| 1777506365 | 9.44° C | 90% | 1011.5 hPa | 0 mm | - | - | - |
| 1777505466 | 9.44° C | 88% | 1011.7 hPa | 0 mm | - | - | - |
| 1777504562 | 9.44° C | 88% | 1011.6 hPa | 0 mm | - | - | - |
| 1777503661 | 9.44° C | 87% | 1011.8 hPa | 0 mm | - | - | - |
| 1777502758 | 9.44° C | 86% | 1011.7 hPa | 0 mm | - | - | - |
| 1777501855 | 10° C | 86% | 1011.7 hPa | 0 mm | - | - | - |
| 1777500953 | 10° C | 88% | 1011.5 hPa | 0 mm | - | - | - |
| 1777500048 | 10° C | 87% | 1011.5 hPa | 0 mm | - | - | - |
| 1777499146 | 10° C | 87% | 1011.5 hPa | 0 mm | - | - | - |
| 1777498246 | 10° C | 87% | 1011.3 hPa | 0 mm | - | - | - |
* Rain latest hour (hover to see other rain measurements)
** Current wind speed in m/s (hover to see current wind gust speed)